Year,Month,Day,Hour,Minute,Value (Times are PST for windspeed in km/hr)
2013,09,29,00,00,2.60
2013,09,29,00,01,2.90
2013,09,29,00,02,3.20
2013,09,29,00,03,2.50
2013,09,29,00,04,1.60
2013,09,29,00,05,2.40
2013,09,29,00,06,2.30
2013,09,29,00,07,2.60
2013,09,29,00,08,2.80
2013,09,29,00,09,3.50
2013,09,29,00,10,2.70
2013,09,29,00,11,1.80
2013,09,29,00,12,3.80
2013,09,29,00,13,3.50
2013,09,29,00,14,3.80
2013,09,29,00,15,1.50
2013,09,29,00,16,1.00
2013,09,29,00,17,1.10
2013,09,29,00,18,1.90
2013,09,29,00,19,1.80
2013,09,29,00,20,1.40
2013,09,29,00,21,1.80
2013,09,29,00,22,1.90
2013,09,29,00,23,0.20
2013,09,29,00,24,0.00
2013,09,29,00,25,1.40
2013,09,29,00,26,0.90
2013,09,29,00,27,3.50
2013,09,29,00,28,3.40
2013,09,29,00,29,2.10
2013,09,29,00,30,3.80
2013,09,29,00,31,3.60
2013,09,29,00,32,4.70
2013,09,29,00,33,4.00
2013,09,29,00,34,5.00
2013,09,29,00,35,5.20
2013,09,29,00,36,4.00
2013,09,29,00,37,4.00
2013,09,29,00,38,2.10
2013,09,29,00,39,3.00
2013,09,29,00,40,3.00
2013,09,29,00,41,3.00
2013,09,29,00,42,2.80
2013,09,29,00,43,3.20
2013,09,29,00,44,2.90
2013,09,29,00,45,3.40
2013,09,29,00,46,3.20
2013,09,29,00,47,3.30
2013,09,29,00,48,4.30
2013,09,29,00,49,3.90
2013,09,29,00,50,3.50
2013,09,29,00,51,3.30
2013,09,29,00,52,2.70
2013,09,29,00,53,5.40
2013,09,29,00,54,4.70
2013,09,29,00,55,8.10
2013,09,29,00,56,5.90
2013,09,29,00,57,7.90
2013,09,29,00,58,6.30
2013,09,29,00,59,6.90
2013,09,29,01,00,3.90
2013,09,29,01,01,5.40
2013,09,29,01,02,3.80
2013,09,29,01,03,4.70
2013,09,29,01,04,4.10
2013,09,29,01,05,1.70
2013,09,29,01,06,1.40
2013,09,29,01,07,2.30
2013,09,29,01,08,2.20
2013,09,29,01,09,1.10
2013,09,29,01,10,2.50
2013,09,29,01,11,3.70
2013,09,29,01,12,4.90
2013,09,29,01,13,4.10
2013,09,29,01,14,1.60
2013,09,29,01,15,3.00
2013,09,29,01,16,3.10
2013,09,29,01,17,3.20
2013,09,29,01,18,2.20
2013,09,29,01,19,1.80
2013,09,29,01,20,1.20
2013,09,29,01,21,1.90
2013,09,29,01,22,3.90
2013,09,29,01,23,4.10
2013,09,29,01,24,3.40
2013,09,29,01,25,3.00
2013,09,29,01,26,2.60
2013,09,29,01,27,2.70
2013,09,29,01,28,2.10
2013,09,29,01,29,4.30
2013,09,29,01,30,5.80
2013,09,29,01,31,7.40
2013,09,29,01,32,8.10
2013,09,29,01,33,7.20
2013,09,29,01,34,7.40
2013,09,29,01,35,11.50
2013,09,29,01,36,10.70
2013,09,29,01,37,11.80
2013,09,29,01,38,12.00
2013,09,29,01,39,12.70
2013,09,29,01,40,5.90
2013,09,29,01,41,5.30
2013,09,29,01,42,3.30
2013,09,29,01,43,5.70
2013,09,29,01,44,5.20
2013,09,29,01,45,3.10
2013,09,29,01,46,3.10
2013,09,29,01,47,1.90
2013,09,29,01,48,2.00
2013,09,29,01,49,3.40
2013,09,29,01,50,3.70
2013,09,29,01,51,3.00
2013,09,29,01,52,3.40
2013,09,29,01,53,4.20
2013,09,29,01,54,5.00
2013,09,29,01,55,4.00
2013,09,29,01,56,4.00
2013,09,29,01,57,5.00
2013,09,29,01,58,4.50
2013,09,29,01,59,4.70
2013,09,29,02,00,7.20
2013,09,29,02,01,7.70
2013,09,29,02,02,7.70
2013,09,29,02,03,6.60
2013,09,29,02,04,6.00
2013,09,29,02,05,4.80
2013,09,29,02,06,6.70
2013,09,29,02,07,6.80
2013,09,29,02,08,6.40
2013,09,29,02,09,5.80
2013,09,29,02,10,3.40
2013,09,29,02,11,2.80
2013,09,29,02,12,3.50
2013,09,29,02,13,2.90
2013,09,29,02,14,3.30
2013,09,29,02,15,3.40
2013,09,29,02,16,2.30
2013,09,29,02,17,1.20
2013,09,29,02,18,1.40
2013,09,29,02,19,2.60
2013,09,29,02,20,3.10
2013,09,29,02,21,4.60
2013,09,29,02,22,6.00
2013,09,29,02,23,4.70
2013,09,29,02,24,4.90
2013,09,29,02,25,5.10
2013,09,29,02,26,7.90
2013,09,29,02,27,9.00
2013,09,29,02,28,9.50
2013,09,29,02,29,6.60
2013,09,29,02,30,4.40
2013,09,29,02,31,5.50
2013,09,29,02,32,6.00
2013,09,29,02,33,4.70
2013,09,29,02,34,8.40
2013,09,29,02,35,9.90
2013,09,29,02,36,7.20
2013,09,29,02,37,6.70
2013,09,29,02,38,6.30
2013,09,29,02,39,5.20
2013,09,29,02,40,5.60
2013,09,29,02,41,6.20
2013,09,29,02,42,6.50
2013,09,29,02,43,9.10
2013,09,29,02,44,8.00
2013,09,29,02,45,7.50
2013,09,29,02,46,6.80
2013,09,29,02,47,5.30
2013,09,29,02,48,4.60
2013,09,29,02,49,3.90
2013,09,29,02,50,2.60
2013,09,29,02,51,1.90
2013,09,29,02,52,2.10
2013,09,29,02,53,2.60
2013,09,29,02,54,2.40
2013,09,29,02,55,3.20
2013,09,29,02,56,4.00
2013,09,29,02,57,3.00
2013,09,29,02,58,3.10
2013,09,29,02,59,4.40
2013,09,29,03,00,6.20
2013,09,29,03,01,5.20
2013,09,29,03,02,5.00
2013,09,29,03,03,4.70
2013,09,29,03,04,5.00
2013,09,29,03,05,4.60
2013,09,29,03,06,3.40
2013,09,29,03,07,3.00
2013,09,29,03,08,4.80
2013,09,29,03,09,4.30
2013,09,29,03,10,4.30
2013,09,29,03,11,4.00
2013,09,29,03,12,6.30
2013,09,29,03,13,6.50
2013,09,29,03,14,5.50
2013,09,29,03,15,4.50
2013,09,29,03,16,2.60
2013,09,29,03,17,2.50
2013,09,29,03,18,4.10
2013,09,29,03,19,4.50
2013,09,29,03,20,5.70
2013,09,29,03,21,5.10
2013,09,29,03,22,4.30
2013,09,29,03,23,3.90
2013,09,29,03,24,3.70
2013,09,29,03,25,3.90
2013,09,29,03,26,5.80
2013,09,29,03,27,4.70
2013,09,29,03,28,3.90
2013,09,29,03,29,3.40
2013,09,29,03,30,3.00
2013,09,29,03,31,3.10
2013,09,29,03,32,1.90
2013,09,29,03,33,1.60
2013,09,29,03,34,1.90
2013,09,29,03,35,2.00
2013,09,29,03,36,2.10
2013,09,29,03,37,1.10
2013,09,29,03,38,0.40
2013,09,29,03,39,1.40
2013,09,29,03,40,2.80
2013,09,29,03,41,1.00
2013,09,29,03,42,1.30
2013,09,29,03,43,0.30
2013,09,29,03,44,1.00
2013,09,29,03,45,1.70
2013,09,29,03,46,2.80
2013,09,29,03,47,2.30
2013,09,29,03,48,2.30
2013,09,29,03,49,3.50
2013,09,29,03,50,3.90
2013,09,29,03,51,3.50
2013,09,29,03,52,3.90
2013,09,29,03,53,3.90
2013,09,29,03,54,4.10
2013,09,29,03,55,3.20
2013,09,29,03,56,2.40
2013,09,29,03,57,2.30
2013,09,29,03,58,1.30
2013,09,29,03,59,0.00
2013,09,29,04,00,0.80
2013,09,29,04,01,1.40
2013,09,29,04,02,1.40
2013,09,29,04,03,1.50
2013,09,29,04,04,1.00
2013,09,29,04,05,2.00
2013,09,29,04,06,2.90
2013,09,29,04,07,3.90
2013,09,29,04,08,3.30
2013,09,29,04,09,2.50
2013,09,29,04,10,2.40
2013,09,29,04,11,3.50
2013,09,29,04,12,3.00
2013,09,29,04,13,4.50
2013,09,29,04,14,4.60
2013,09,29,04,15,4.00
2013,09,29,04,16,4.40
2013,09,29,04,17,4.90
2013,09,29,04,18,3.10
2013,09,29,04,19,3.00
2013,09,29,04,20,2.40
2013,09,29,04,21,2.40
2013,09,29,04,22,4.10
2013,09,29,04,23,2.30
2013,09,29,04,24,1.80
2013,09,29,04,25,1.90
2013,09,29,04,26,2.20
2013,09,29,04,27,0.60
2013,09,29,04,28,0.20
2013,09,29,04,29,0.00
2013,09,29,04,30,0.00
2013,09,29,04,31,1.50
2013,09,29,04,32,2.60
2013,09,29,04,33,2.00
2013,09,29,04,34,3.10
2013,09,29,04,35,1.90
2013,09,29,04,36,2.70
2013,09,29,04,37,5.50
2013,09,29,04,38,6.70
2013,09,29,04,39,6.80
2013,09,29,04,40,7.10
2013,09,29,04,41,4.10
2013,09,29,04,42,4.70
2013,09,29,04,43,5.60
2013,09,29,04,44,3.50
2013,09,29,04,45,5.60
2013,09,29,04,46,4.90
2013,09,29,04,47,4.30
2013,09,29,04,48,4.30
2013,09,29,04,49,4.70
2013,09,29,04,50,6.80
2013,09,29,04,51,6.90
2013,09,29,04,52,5.20
2013,09,29,04,53,5.40
2013,09,29,04,54,3.90
2013,09,29,04,55,1.50
2013,09,29,04,56,2.80
2013,09,29,04,57,4.80
2013,09,29,04,58,3.50
2013,09,29,04,59,3.70
2013,09,29,05,00,5.10
2013,09,29,05,01,3.50
2013,09,29,05,02,3.20
2013,09,29,05,03,4.10
2013,09,29,05,04,4.10
2013,09,29,05,05,4.60
2013,09,29,05,06,5.10
2013,09,29,05,07,6.40
2013,09,29,05,08,6.00
2013,09,29,05,09,5.30
2013,09,29,05,10,5.40
2013,09,29,05,11,8.20
2013,09,29,05,12,4.90
2013,09,29,05,13,5.10
2013,09,29,05,14,6.20
2013,09,29,05,15,5.50
2013,09,29,05,16,8.80
2013,09,29,05,17,14.90
2013,09,29,05,18,10.60
2013,09,29,05,19,4.70
2013,09,29,05,20,4.00
2013,09,29,05,21,7.50
2013,09,29,05,22,7.10
2013,09,29,05,23,8.30
2013,09,29,05,24,9.20
2013,09,29,05,25,5.70
2013,09,29,05,26,6.10
2013,09,29,05,27,7.20
2013,09,29,05,28,4.90
2013,09,29,05,29,6.20
2013,09,29,05,30,5.50
2013,09,29,05,31,4.70
2013,09,29,05,32,4.20
2013,09,29,05,33,2.90
2013,09,29,05,34,4.60
2013,09,29,05,35,5.00
2013,09,29,05,36,6.60
2013,09,29,05,37,5.60
2013,09,29,05,38,4.60
2013,09,29,05,39,4.10
2013,09,29,05,40,4.70
2013,09,29,05,41,4.60
2013,09,29,05,42,4.40
2013,09,29,05,43,5.70
2013,09,29,05,44,5.30
2013,09,29,05,45,4.50
2013,09,29,05,46,4.30
2013,09,29,05,47,4.30
2013,09,29,05,48,6.20
2013,09,29,05,49,4.70
2013,09,29,05,50,4.30
2013,09,29,05,51,5.70
2013,09,29,05,52,6.00
2013,09,29,05,53,5.10
2013,09,29,05,54,4.70
2013,09,29,05,55,4.40
2013,09,29,05,56,3.90
2013,09,29,05,57,7.70
2013,09,29,05,58,6.80
2013,09,29,05,59,7.10
2013,09,29,06,00,7.70
2013,09,29,06,01,7.90
2013,09,29,06,02,8.40
2013,09,29,06,03,11.10
2013,09,29,06,04,8.50
2013,09,29,06,05,9.60
2013,09,29,06,06,14.60
2013,09,29,06,07,12.70
2013,09,29,06,08,13.60
2013,09,29,06,09,13.50
2013,09,29,06,10,12.60
2013,09,29,06,11,15.80
2013,09,29,06,12,11.70
2013,09,29,06,13,12.60
2013,09,29,06,14,10.90
2013,09,29,06,15,9.60
2013,09,29,06,16,9.70
2013,09,29,06,17,9.30
2013,09,29,06,18,8.20
2013,09,29,06,19,8.90
2013,09,29,06,20,10.00
2013,09,29,06,21,9.00
2013,09,29,06,22,9.20
2013,09,29,06,23,9.00
2013,09,29,06,24,9.10
2013,09,29,06,25,8.10
2013,09,29,06,26,6.90
2013,09,29,06,27,9.80
2013,09,29,06,28,10.40
2013,09,29,06,29,11.60
2013,09,29,06,30,13.10
2013,09,29,06,31,9.80
2013,09,29,06,32,8.80
2013,09,29,06,33,8.60
2013,09,29,06,34,7.90
2013,09,29,06,35,9.40
2013,09,29,06,36,9.90
2013,09,29,06,37,8.90
2013,09,29,06,38,12.30
2013,09,29,06,39,10.60
2013,09,29,06,40,11.20
2013,09,29,06,41,13.00
2013,09,29,06,42,13.40
2013,09,29,06,43,13.60
2013,09,29,06,44,13.50
2013,09,29,06,45,13.10
2013,09,29,06,46,11.20
2013,09,29,06,47,9.00
2013,09,29,06,48,9.80
2013,09,29,06,49,9.30
2013,09,29,06,50,11.70
2013,09,29,06,51,8.70
2013,09,29,06,52,13.40
2013,09,29,06,53,11.80
2013,09,29,06,54,10.00
2013,09,29,06,55,9.50
2013,09,29,06,56,9.70
2013,09,29,06,57,10.30
2013,09,29,06,58,11.20
2013,09,29,06,59,7.30
2013,09,29,07,00,8.90
2013,09,29,07,01,8.10
2013,09,29,07,02,7.70
2013,09,29,07,03,6.00
2013,09,29,07,04,6.70
2013,09,29,07,05,7.50
2013,09,29,07,06,6.90
2013,09,29,07,07,5.90
2013,09,29,07,08,7.50
2013,09,29,07,09,6.40
2013,09,29,07,10,6.30
2013,09,29,07,11,8.90
2013,09,29,07,12,7.40
2013,09,29,07,13,5.30
2013,09,29,07,14,5.40
2013,09,29,07,15,7.00
2013,09,29,07,16,5.60
2013,09,29,07,17,6.20
2013,09,29,07,18,6.90
2013,09,29,07,19,5.20
2013,09,29,07,20,4.40
2013,09,29,07,21,5.70
2013,09,29,07,22,5.90
2013,09,29,07,23,5.60
2013,09,29,07,24,8.80
2013,09,29,07,25,8.20
2013,09,29,07,26,7.40
2013,09,29,07,27,8.20
2013,09,29,07,28,7.80
2013,09,29,07,29,8.80
2013,09,29,07,30,8.10
2013,09,29,07,31,6.70
2013,09,29,07,32,8.10
2013,09,29,07,33,8.10
2013,09,29,07,34,7.30
2013,09,29,07,35,6.90
2013,09,29,07,36,7.10
2013,09,29,07,37,5.20
2013,09,29,07,38,6.40
2013,09,29,07,39,7.70
2013,09,29,07,40,5.60
2013,09,29,07,41,5.50
2013,09,29,07,42,6.60
2013,09,29,07,43,4.80
2013,09,29,07,44,5.50
2013,09,29,07,45,7.10
2013,09,29,07,46,6.70
2013,09,29,07,47,6.30
2013,09,29,07,48,7.40
2013,09,29,07,49,6.20
2013,09,29,07,50,5.60
2013,09,29,07,51,7.80
2013,09,29,07,52,7.90
2013,09,29,07,53,6.00
2013,09,29,07,54,7.20
2013,09,29,07,55,6.70
2013,09,29,07,56,7.30
2013,09,29,07,57,3.60
2013,09,29,07,58,5.00
2013,09,29,07,59,6.30
2013,09,29,08,00,8.40
2013,09,29,08,01,5.90
2013,09,29,08,02,4.80
2013,09,29,08,03,8.40
2013,09,29,08,04,7.30
2013,09,29,08,05,8.30
2013,09,29,08,06,9.60
2013,09,29,08,07,9.80
2013,09,29,08,08,11.20
2013,09,29,08,09,11.30
2013,09,29,08,10,10.50
2013,09,29,08,11,12.60
2013,09,29,08,12,10.10
2013,09,29,08,13,8.60
2013,09,29,08,14,8.40
2013,09,29,08,15,9.60
2013,09,29,08,16,9.30
2013,09,29,08,17,9.70
2013,09,29,08,18,11.90
2013,09,29,08,19,11.30
2013,09,29,08,20,10.80
2013,09,29,08,21,9.60
2013,09,29,08,22,9.70
2013,09,29,08,23,12.50
2013,09,29,08,24,7.90
2013,09,29,08,25,7.80
2013,09,29,08,26,10.10
2013,09,29,08,27,10.10
2013,09,29,08,28,8.80
2013,09,29,08,29,11.30
2013,09,29,08,30,7.70
2013,09,29,08,31,7.70
2013,09,29,08,32,11.30
2013,09,29,08,33,7.80
2013,09,29,08,34,7.50
2013,09,29,08,35,6.70
2013,09,29,08,36,8.10
2013,09,29,08,37,8.90
2013,09,29,08,38,9.30
2013,09,29,08,39,9.90
2013,09,29,08,40,8.50
2013,09,29,08,41,7.70
2013,09,29,08,42,9.70
2013,09,29,08,43,6.80
2013,09,29,08,44,6.80
2013,09,29,08,45,8.30
2013,09,29,08,46,5.50
2013,09,29,08,47,6.70
2013,09,29,08,48,7.60
2013,09,29,08,49,7.20
2013,09,29,08,50,6.20
2013,09,29,08,51,6.00
2013,09,29,08,52,6.90
2013,09,29,08,53,7.20
2013,09,29,08,54,6.80
2013,09,29,08,55,8.60
2013,09,29,08,56,9.10
2013,09,29,08,57,6.90
2013,09,29,08,58,7.00
2013,09,29,08,59,9.70
2013,09,29,09,00,12.10
2013,09,29,09,01,10.50
2013,09,29,09,02,10.20
2013,09,29,09,03,9.20
2013,09,29,09,04,11.00
2013,09,29,09,05,8.60
2013,09,29,09,06,6.80
2013,09,29,09,07,3.90
2013,09,29,09,08,2.70
2013,09,29,09,09,3.60
2013,09,29,09,10,1.60
2013,09,29,09,11,2.90
2013,09,29,09,12,3.50
2013,09,29,09,13,3.60
2013,09,29,09,14,0.80
2013,09,29,09,15,2.30
2013,09,29,09,16,1.90
2013,09,29,09,17,2.50
2013,09,29,09,18,2.30
2013,09,29,09,19,2.60
2013,09,29,09,20,1.60
2013,09,29,09,21,0.80
2013,09,29,09,22,1.80
2013,09,29,09,23,1.10
2013,09,29,09,24,1.60
2013,09,29,09,25,0.70
2013,09,29,09,26,0.00
2013,09,29,09,27,0.00
2013,09,29,09,28,0.00
2013,09,29,09,29,1.40
2013,09,29,09,30,2.80
2013,09,29,09,31,3.90
2013,09,29,09,32,3.10
2013,09,29,09,33,1.70
2013,09,29,09,34,1.50
2013,09,29,09,35,1.90
2013,09,29,09,36,2.60
2013,09,29,09,37,2.80
2013,09,29,09,38,1.50
2013,09,29,09,39,1.10
2013,09,29,09,40,0.90
2013,09,29,09,41,2.30
2013,09,29,09,42,3.80
2013,09,29,09,43,3.40
2013,09,29,09,44,3.50
2013,09,29,09,45,2.00
2013,09,29,09,46,3.40
2013,09,29,09,47,1.90
2013,09,29,09,48,2.80
2013,09,29,09,49,3.80
2013,09,29,09,50,3.30
2013,09,29,09,51,4.50
2013,09,29,09,52,6.40
2013,09,29,09,53,5.60
2013,09,29,09,54,3.90
2013,09,29,09,55,4.20
2013,09,29,09,56,2.60
2013,09,29,09,57,2.60
2013,09,29,09,58,1.60
2013,09,29,09,59,1.50
2013,09,29,10,00,0.60
2013,09,29,10,01,0.20
2013,09,29,10,02,0.00
2013,09,29,10,03,1.60
2013,09,29,10,04,2.60
2013,09,29,10,05,2.00
2013,09,29,10,06,0.10
2013,09,29,10,07,0.00
2013,09,29,10,08,0.00
2013,09,29,10,09,0.00
2013,09,29,10,10,1.50
2013,09,29,10,11,1.50
2013,09,29,10,12,4.10
2013,09,29,10,13,4.70
2013,09,29,10,14,4.70
2013,09,29,10,15,4.70
2013,09,29,10,16,4.40
2013,09,29,10,17,3.00
2013,09,29,10,18,3.50
2013,09,29,10,19,5.80
2013,09,29,10,20,5.70
2013,09,29,10,21,4.10
2013,09,29,10,22,3.30
2013,09,29,10,23,3.40
2013,09,29,10,24,5.20
2013,09,29,10,25,5.40
2013,09,29,10,26,7.40
2013,09,29,10,27,8.70
2013,09,29,10,28,8.50
2013,09,29,10,29,10.10
2013,09,29,10,30,12.90
2013,09,29,10,31,11.40
2013,09,29,10,32,14.30
2013,09,29,10,33,12.70
2013,09,29,10,34,8.40
2013,09,29,10,35,8.70
2013,09,29,10,36,7.20
2013,09,29,10,37,11.00
2013,09,29,10,38,5.30
2013,09,29,10,39,5.40
2013,09,29,10,40,8.10
2013,09,29,10,41,8.50
2013,09,29,10,42,8.80
2013,09,29,10,43,6.70
2013,09,29,10,44,8.90
2013,09,29,10,45,8.30
2013,09,29,10,46,8.50
2013,09,29,10,47,8.50
2013,09,29,10,48,5.20
2013,09,29,10,49,6.00
2013,09,29,10,50,6.80
2013,09,29,10,51,8.70
2013,09,29,10,52,9.00
2013,09,29,10,53,8.20
2013,09,29,10,54,9.30
2013,09,29,10,55,8.20
2013,09,29,10,56,9.40
2013,09,29,10,57,8.40
2013,09,29,10,58,7.60
2013,09,29,10,59,8.70
2013,09,29,11,00,7.10
2013,09,29,11,01,6.90
2013,09,29,11,02,6.90
2013,09,29,11,03,5.90
2013,09,29,11,04,3.40
2013,09,29,11,05,5.20
2013,09,29,11,06,9.90
2013,09,29,11,07,5.60
2013,09,29,11,08,6.70
2013,09,29,11,09,6.90
2013,09,29,11,10,8.70
2013,09,29,11,11,7.60
2013,09,29,11,12,6.60
2013,09,29,11,13,6.60
2013,09,29,11,14,8.50
2013,09,29,11,15,7.40
2013,09,29,11,16,8.10
2013,09,29,11,17,7.40
2013,09,29,11,18,6.80
2013,09,29,11,19,5.30
2013,09,29,11,20,6.50
2013,09,29,11,21,4.20
2013,09,29,11,22,6.80
2013,09,29,11,23,8.10
2013,09,29,11,24,8.20
2013,09,29,11,25,8.10
2013,09,29,11,26,6.30
2013,09,29,11,27,6.30
2013,09,29,11,28,4.60
2013,09,29,11,29,7.10
2013,09,29,11,30,6.40
2013,09,29,11,31,6.50
2013,09,29,11,32,7.30
2013,09,29,11,33,6.30
2013,09,29,11,34,7.80
2013,09,29,11,35,4.10
2013,09,29,11,36,5.60
2013,09,29,11,37,4.70
2013,09,29,11,38,1.50
2013,09,29,11,39,4.50
2013,09,29,11,40,8.10
2013,09,29,11,41,8.80
2013,09,29,11,42,7.30
2013,09,29,11,43,8.40
2013,09,29,11,44,8.40
2013,09,29,11,45,7.20
2013,09,29,11,46,3.00
2013,09,29,11,47,6.90
2013,09,29,11,48,2.30
2013,09,29,11,49,6.30
2013,09,29,11,50,5.60
2013,09,29,11,51,7.10
2013,09,29,11,52,5.60
2013,09,29,11,53,4.40
2013,09,29,11,54,5.20
2013,09,29,11,55,2.20
2013,09,29,11,56,2.10
2013,09,29,11,57,1.30
2013,09,29,11,58,1.00
2013,09,29,11,59,1.40
2013,09,29,12,00,1.50
2013,09,29,12,01,0.90
2013,09,29,12,02,1.90
2013,09,29,12,03,2.50
2013,09,29,12,04,2.60
2013,09,29,12,05,3.90
2013,09,29,12,06,5.10
2013,09,29,12,07,4.30
2013,09,29,12,08,3.20
2013,09,29,12,09,4.70
2013,09,29,12,10,3.50
2013,09,29,12,11,4.70
2013,09,29,12,12,4.00
2013,09,29,12,13,3.70
2013,09,29,12,14,3.10
2013,09,29,12,15,3.50
2013,09,29,12,16,3.50
2013,09,29,12,17,4.40
2013,09,29,12,18,4.10
2013,09,29,12,19,3.30
2013,09,29,12,20,2.20
2013,09,29,12,21,3.60
2013,09,29,12,22,4.20
2013,09,29,12,23,4.20
2013,09,29,12,24,4.00
2013,09,29,12,25,3.40
2013,09,29,12,26,2.40
2013,09,29,12,27,1.90
2013,09,29,12,28,2.70
2013,09,29,12,29,1.80
2013,09,29,12,30,2.20
2013,09,29,12,31,2.30
2013,09,29,12,32,3.50
2013,09,29,12,33,3.00
2013,09,29,12,34,2.30
2013,09,29,12,35,1.10
2013,09,29,12,36,1.40
2013,09,29,12,37,2.70
2013,09,29,12,38,2.40
2013,09,29,12,39,3.00
2013,09,29,12,40,3.40
2013,09,29,12,41,2.30
2013,09,29,12,42,1.70
2013,09,29,12,43,2.30
2013,09,29,12,44,1.40
2013,09,29,12,45,1.40
2013,09,29,12,46,2.60
2013,09,29,12,47,3.50
2013,09,29,12,48,3.80
2013,09,29,12,49,3.00
2013,09,29,12,50,2.70
2013,09,29,12,51,3.50
2013,09,29,12,52,4.30
2013,09,29,12,53,5.10
2013,09,29,12,54,5.10
2013,09,29,12,55,4.40
2013,09,29,12,56,3.10
2013,09,29,12,57,4.10
2013,09,29,12,58,3.90
2013,09,29,12,59,2.90
2013,09,29,13,00,3.30
2013,09,29,13,01,2.80
2013,09,29,13,02,3.20
2013,09,29,13,03,1.80
2013,09,29,13,04,2.90
2013,09,29,13,05,2.50
2013,09,29,13,06,2.60
2013,09,29,13,07,4.40
2013,09,29,13,08,4.90
2013,09,29,13,09,3.70
2013,09,29,13,10,3.50
2013,09,29,13,11,3.50
2013,09,29,13,12,1.50
2013,09,29,13,13,2.00
2013,09,29,13,14,2.20
2013,09,29,13,15,4.40
2013,09,29,13,16,3.50
2013,09,29,13,17,3.00
2013,09,29,13,18,2.50
2013,09,29,13,19,3.20
2013,09,29,13,20,5.00
2013,09,29,13,21,5.10
2013,09,29,13,22,4.40
2013,09,29,13,23,3.50
2013,09,29,13,24,5.20
2013,09,29,13,25,5.10
2013,09,29,13,26,4.20
2013,09,29,13,27,1.30
2013,09,29,13,28,2.30
2013,09,29,13,29,2.70
2013,09,29,13,30,1.60
2013,09,29,13,31,3.50
2013,09,29,13,32,6.40
2013,09,29,13,33,7.00
2013,09,29,13,34,5.70
2013,09,29,13,35,4.70
2013,09,29,13,36,3.70
2013,09,29,13,37,3.00
2013,09,29,13,38,1.70
2013,09,29,13,39,4.60
2013,09,29,13,40,3.40
2013,09,29,13,41,2.90
2013,09,29,13,42,3.80
2013,09,29,13,43,5.10
2013,09,29,13,44,3.60
2013,09,29,13,45,3.20
2013,09,29,13,46,2.90
2013,09,29,13,47,2.80
2013,09,29,13,48,3.10
2013,09,29,13,49,3.50
2013,09,29,13,50,1.10
2013,09,29,13,51,0.10
2013,09,29,13,52,0.90
2013,09,29,13,53,1.40
2013,09,29,13,54,2.30
2013,09,29,13,55,2.40
2013,09,29,13,56,1.90
2013,09,29,13,57,1.70
2013,09,29,13,58,0.20
2013,09,29,13,59,1.00
2013,09,29,14,00,3.60
2013,09,29,14,01,3.00
2013,09,29,14,02,2.90
2013,09,29,14,03,3.80
2013,09,29,14,04,3.00
2013,09,29,14,05,4.90
2013,09,29,14,06,2.90
2013,09,29,14,07,3.70
2013,09,29,14,08,3.70
2013,09,29,14,09,6.40
2013,09,29,14,10,7.70
2013,09,29,14,11,8.10
2013,09,29,14,12,7.90
2013,09,29,14,13,7.70
2013,09,29,14,14,5.40
2013,09,29,14,15,8.20
2013,09,29,14,16,9.70
2013,09,29,14,17,9.80
2013,09,29,14,18,6.20
2013,09,29,14,19,5.70
2013,09,29,14,20,9.30
2013,09,29,14,21,5.70
2013,09,29,14,22,6.00
2013,09,29,14,23,6.40
2013,09,29,14,24,4.50
2013,09,29,14,25,4.10
2013,09,29,14,26,1.50
2013,09,29,14,27,2.00
2013,09,29,14,28,3.00
2013,09,29,14,29,5.30
2013,09,29,14,30,5.70
2013,09,29,14,31,4.30
2013,09,29,14,32,4.20
2013,09,29,14,33,4.30
2013,09,29,14,34,5.10
2013,09,29,14,35,3.50
2013,09,29,14,36,2.10
2013,09,29,14,37,3.00
2013,09,29,14,38,3.90
2013,09,29,14,39,4.20
2013,09,29,14,40,4.10
2013,09,29,14,41,3.50
2013,09,29,14,42,2.20
2013,09,29,14,43,3.00
2013,09,29,14,44,4.20
2013,09,29,14,45,5.30
2013,09,29,14,46,5.60
2013,09,29,14,47,5.10
2013,09,29,14,48,5.90
2013,09,29,14,49,4.90
2013,09,29,14,50,3.90
2013,09,29,14,51,2.60
2013,09,29,14,52,1.90
2013,09,29,14,53,5.60
2013,09,29,14,54,3.60
2013,09,29,14,55,2.40
2013,09,29,14,56,3.90
2013,09,29,14,57,2.50
2013,09,29,14,58,1.30
2013,09,29,14,59,4.00
2013,09,29,15,00,3.40
2013,09,29,15,01,3.10
2013,09,29,15,02,4.70
2013,09,29,15,03,3.90
2013,09,29,15,04,4.30
2013,09,29,15,05,3.80
2013,09,29,15,06,4.10
2013,09,29,15,07,3.70
2013,09,29,15,08,3.40
2013,09,29,15,09,3.00
2013,09,29,15,10,3.30
2013,09,29,15,11,3.00
2013,09,29,15,12,2.60
2013,09,29,15,13,1.30
2013,09,29,15,14,1.60
2013,09,29,15,15,1.60
2013,09,29,15,16,0.90
2013,09,29,15,17,3.50
2013,09,29,15,18,1.70
2013,09,29,15,19,1.20
2013,09,29,15,20,1.20
2013,09,29,15,21,3.50
2013,09,29,15,22,4.00
2013,09,29,15,23,3.30
2013,09,29,15,24,2.90
2013,09,29,15,25,4.20
2013,09,29,15,26,3.60
2013,09,29,15,27,4.50
2013,09,29,15,28,5.90
2013,09,29,15,29,3.00
2013,09,29,15,30,5.50
2013,09,29,15,31,6.20
2013,09,29,15,32,3.50
2013,09,29,15,33,9.30
2013,09,29,15,34,7.70
2013,09,29,15,35,6.80
2013,09,29,15,36,8.90
2013,09,29,15,37,8.60
2013,09,29,15,38,6.70
2013,09,29,15,39,9.30
2013,09,29,15,40,11.20
2013,09,29,15,41,10.20
2013,09,29,15,42,10.10
2013,09,29,15,43,11.80
2013,09,29,15,44,7.70
2013,09,29,15,45,8.30
2013,09,29,15,46,8.40
2013,09,29,15,47,7.40
2013,09,29,15,48,8.50
2013,09,29,15,49,9.60
2013,09,29,15,50,13.70
2013,09,29,15,51,11.10
2013,09,29,15,52,13.00
2013,09,29,15,53,11.60
2013,09,29,15,54,9.60
2013,09,29,15,55,8.80
2013,09,29,15,56,13.00
2013,09,29,15,57,18.10
2013,09,29,15,58,12.50
2013,09,29,15,59,15.90
2013,09,29,16,00,17.50
2013,09,29,16,01,19.00
2013,09,29,16,02,19.20
2013,09,29,16,03,15.00
2013,09,29,16,04,16.50
2013,09,29,16,05,15.90
2013,09,29,16,06,11.60
2013,09,29,16,07,23.10
2013,09,29,16,08,17.30
2013,09,29,16,09,17.70
2013,09,29,16,10,14.20
2013,09,29,16,11,22.50
2013,09,29,16,12,26.10
2013,09,29,16,13,22.90
2013,09,29,16,14,24.30
2013,09,29,16,15,20.70
2013,09,29,16,16,20.80
2013,09,29,16,17,20.20
2013,09,29,16,18,20.30
2013,09,29,16,19,15.00
2013,09,29,16,20,27.40
2013,09,29,16,21,27.30
2013,09,29,16,22,19.70
2013,09,29,16,23,26.70
2013,09,29,16,24,20.80
2013,09,29,16,25,19.60
2013,09,29,16,26,17.50
2013,09,29,16,27,21.30
2013,09,29,16,28,15.80
2013,09,29,16,29,21.20
2013,09,29,16,30,24.70
2013,09,29,16,31,20.30
2013,09,29,16,32,26.90
2013,09,29,16,33,28.60
2013,09,29,16,34,21.10
2013,09,29,16,35,17.40
2013,09,29,16,36,22.60
2013,09,29,16,37,17.90
2013,09,29,16,38,31.00
2013,09,29,16,39,35.00
2013,09,29,16,40,25.30
2013,09,29,16,41,29.50
2013,09,29,16,42,28.10
2013,09,29,16,43,22.80
2013,09,29,16,44,27.60
2013,09,29,16,45,26.60
2013,09,29,16,46,17.70
2013,09,29,16,47,28.10
2013,09,29,16,48,25.20
2013,09,29,16,49,22.00
2013,09,29,16,50,25.80
2013,09,29,16,51,33.40
2013,09,29,16,52,25.10
2013,09,29,16,53,30.30
2013,09,29,16,54,28.10
2013,09,29,16,55,31.00
2013,09,29,16,56,29.20
2013,09,29,16,57,32.50
2013,09,29,16,58,31.90
2013,09,29,16,59,29.70
2013,09,29,17,00,26.60
2013,09,29,17,01,37.80
2013,09,29,17,02,27.60
2013,09,29,17,03,26.90
2013,09,29,17,04,36.80
2013,09,29,17,05,31.50
2013,09,29,17,06,31.50
2013,09,29,17,07,25.70
2013,09,29,17,08,28.60
2013,09,29,17,09,26.80
2013,09,29,17,10,27.40
2013,09,29,17,11,25.90
2013,09,29,17,12,32.10
2013,09,29,17,13,25.30
2013,09,29,17,14,27.40
2013,09,29,17,15,25.70
2013,09,29,17,16,33.20
2013,09,29,17,17,32.20
2013,09,29,17,18,24.90
2013,09,29,17,19,26.00
2013,09,29,17,20,25.70
2013,09,29,17,21,31.10
2013,09,29,17,22,28.00
2013,09,29,17,23,26.90
2013,09,29,17,24,27.00
2013,09,29,17,25,40.00
2013,09,29,17,26,30.30
2013,09,29,17,27,33.90
2013,09,29,17,28,34.10
2013,09,29,17,29,31.20
2013,09,29,17,30,30.50
2013,09,29,17,31,40.70
2013,09,29,17,32,33.00
2013,09,29,17,33,30.40
2013,09,29,17,34,25.80
2013,09,29,17,35,24.30
2013,09,29,17,36,34.10
2013,09,29,17,37,26.60
2013,09,29,17,38,32.70
2013,09,29,17,39,32.10
2013,09,29,17,40,19.90
2013,09,29,17,41,38.80
2013,09,29,17,42,30.70
2013,09,29,17,43,32.90
2013,09,29,17,44,32.00
2013,09,29,17,45,31.90
2013,09,29,17,46,34.70
2013,09,29,17,47,34.60
2013,09,29,17,48,29.70
2013,09,29,17,49,29.90
2013,09,29,17,50,28.50
2013,09,29,17,51,17.70
2013,09,29,17,52,37.90
2013,09,29,17,53,30.30
2013,09,29,17,54,31.10
2013,09,29,17,55,30.90
2013,09,29,17,56,28.60
2013,09,29,17,57,30.90
2013,09,29,17,58,26.70